Shreveport, LA

5:47 PM CDT on June 23, 2017 (GMT -0500)
Shreveport Regional

Weather History for KSHV - November, 2013

Change the Weather History Date:

Saturday, November 23, 2013

  Actual Average Record
Temperature  
Mean Temperature 44 °F 54 °F  
Max Temperature 48 °F 65 °F 84 °F (1973)
Min Temperature 40 °F 43 °F 24 °F (1975)
Degree Days  
Heating Degree Days 21 12  
Month to date heating degree days 197 194  
Since 1 July heating degree days 235 280  
Cooling Degree Days 0 0  
Month to date cooling degree days 14 23  
Year to date cooling degree days 2706 2472  
Moisture  
Dew Point 40 °F    
Average Humidity 81    
Maximum Humidity 96    
Minimum Humidity 65    
Precipitation  
Precipitation 0.25 in 0.14 in 3.85 in (1873)
Month to date precipitation 3.76 3.47  
Year to date precipitation 47.05 45.58  
Snow  
Snow 0.00 in - - ()
Month to date snowfall 0.0  
Since 1 July snowfall 0.0  
Since 1 September snowfall 0.0  
Snow Depth 0.00 in    
Sea Level Pressure  
Sea Level Pressure 30.42 in    
Wind  
Wind Speed 13 mph (NNE)    
Max Wind Speed 20 mph    
Max Gust Speed 24 mph    
Visibility 7 miles    
Events Fog , Rain    
T = Trace of Precipitation, MM = Missing Value Source: NWS Daily Summary

Daily Weather History Graph

Daily Weather History Graph

Search for Another Location

Airport or City:

Trip Planner

Search our weather history database for the weather conditions in past years. The results will help you decide how hot, cold, wet, or windy it might be!

Date:

Astronomy

Nov. 23, 2013 Rise Set
Actual Time 6:52 AM CST 5:11 PM CST
Civil Twilight 6:25 AM CST 5:37 PM CST
Nautical Twilight 5:55 AM CST 6:07 PM CST
Astronomical Twilight 5:26 AM CST 6:37 PM CST
Moon 10:32 PM CST 11:15 AM CST
Length of Visible Light 11h 11m
Length of Day
10h 18m
Waning Gibbous, 69% of the Moon is Illuminated
Nov 23
Waning Gibbous
Nov 25
Last Quarter
Dec 2
New
Dec 9
First Quarter
Dec 17
Full

Hourly Weather History & Observations

Time (CST) Temp. Windchill Dew Point Humidity Pressure Visibility Wind Dir Wind Speed Gust Speed Precip Events Conditions
12:25 AM 46.4 °F 41.1 °F 46.4 °F 100% 30.32 in 6.0 mi North 11.5 mph - 0.00 in   Overcast
12:56 AM 46.9 °F - 45.0 °F 93% 30.32 in 5.0 mi North 12.7 mph - 0.00 in Rain Light Rain
1:56 AM 46.0 °F 39.9 °F 44.1 °F 93% 30.33 in 4.0 mi NNE 13.8 mph - 0.01 in Rain Light Rain
2:56 AM 45.0 °F 37.9 °F 43.0 °F 93% 30.34 in 5.0 mi NNE 16.1 mph 23.0 mph 0.00 in Rain Light Rain
3:56 AM 45.0 °F 38.2 °F 42.1 °F 90% 30.34 in 10.0 mi NNE 15.0 mph 23.0 mph 0.02 in Rain Light Rain
4:54 AM 44.6 °F 39.2 °F 42.8 °F 93% 30.35 in 4.0 mi NNE 10.4 mph - 0.00 in Rain Light Rain
4:56 AM 44.1 °F 38.6 °F 42.1 °F 93% 30.35 in 4.0 mi NNE 10.4 mph - 0.00 in Rain Light Rain
5:42 AM 44.6 °F 38.8 °F 42.8 °F 93% 30.36 in 5.0 mi NNE 11.5 mph - 0.04 in Rain Light Rain
5:56 AM 44.1 °F 39.0 °F 42.1 °F 93% 30.36 in 4.0 mi NNE 9.2 mph - 0.05 in Rain Rain
6:31 AM 42.8 °F 35.8 °F 41.0 °F 93% 30.37 in 4.0 mi NNE 13.8 mph - 0.11 in Rain Rain
6:46 AM 42.8 °F 36.2 °F 41.0 °F 93% 30.38 in 9.0 mi NNE 12.7 mph 20.7 mph 0.12 in Rain Light Rain
6:54 AM 42.8 °F 36.2 °F 41.0 °F 93% 30.39 in 10.0 mi NNE 12.7 mph - 0.12 in Rain Light Rain
6:56 AM 43.0 °F 36.8 °F 41.0 °F 93% 30.39 in 9.0 mi NNE 11.5 mph - 0.12 in Rain Light Rain
7:56 AM 43.0 °F 35.7 °F 39.9 °F 89% 30.41 in 10.0 mi NNE 15.0 mph - 0.03 in   Overcast
8:04 AM 42.8 °F 35.1 °F 39.2 °F 87% 30.42 in 10.0 mi NNE 16.1 mph - N/A   Overcast
8:56 AM 43.0 °F 36.8 °F 39.9 °F 89% 30.43 in 10.0 mi NNE 11.5 mph - N/A   Overcast
9:31 AM 42.8 °F 37.0 °F 41.0 °F 93% 30.44 in 2.0 mi North 10.4 mph - N/A   Overcast
9:32 AM 42.8 °F 36.6 °F 41.0 °F 93% 30.44 in 2.0 mi North 11.5 mph - 0.00 in   Light Drizzle
9:56 AM 43.0 °F 36.0 °F 41.0 °F 93% 30.46 in 2.0 mi NNE 13.8 mph - 0.00 in Fog Light Drizzle
10:35 AM 42.8 °F 35.8 °F 41.0 °F 93% 30.45 in 2.5 mi NE 13.8 mph 21.9 mph 0.00 in   Light Drizzle
10:48 AM 44.6 °F 39.2 °F 42.8 °F 93% 30.45 in 2.5 mi NNE 10.4 mph - 0.00 in   Light Drizzle
10:56 AM 44.1 °F 37.4 °F 41.0 °F 89% 30.45 in 2.5 mi NNE 13.8 mph - 0.00 in   Light Drizzle
11:33 AM 44.6 °F 38.8 °F 41.0 °F 87% 30.44 in 4.0 mi NNE 11.5 mph - 0.00 in   Light Drizzle
11:56 AM 43.0 °F 36.4 °F 39.9 °F 89% 30.44 in 6.0 mi NNE 12.7 mph - 0.00 in   Light Drizzle
12:56 PM 43.0 °F 35.1 °F 39.9 °F 89% 30.43 in 6.0 mi NNE 17.3 mph - 0.00 in Rain Light Rain
1:49 PM 44.6 °F 39.2 °F 41.0 °F 87% 30.41 in 7.0 mi NNE 10.4 mph - 0.00 in   Overcast
1:56 PM 44.1 °F 37.4 °F 41.0 °F 89% 30.41 in 7.0 mi NNE 13.8 mph - 0.00 in Rain Light Rain
2:21 PM 44.6 °F 38.4 °F 39.2 °F 81% 30.42 in 6.0 mi NNE 12.7 mph - 0.01 in Rain Light Rain
2:39 PM 44.6 °F 39.2 °F 39.2 °F 81% 30.42 in 7.0 mi NNE 10.4 mph - 0.02 in Rain Light Rain
2:56 PM 44.1 °F 39.5 °F 41.0 °F 89% 30.43 in 5.0 mi NNE 8.1 mph 17.3 mph 0.02 in   Overcast
3:19 PM 44.6 °F 37.4 °F 39.2 °F 81% 30.42 in 10.0 mi NE 16.1 mph 20.7 mph N/A   Overcast
3:31 PM 44.6 °F 38.4 °F 39.2 °F 81% 30.42 in 10.0 mi NNE 12.7 mph - N/A   Overcast
3:56 PM 45.0 °F 38.9 °F 39.9 °F 82% 30.43 in 10.0 mi NNE 12.7 mph - N/A   Overcast
4:56 PM 45.0 °F 39.7 °F 39.9 °F 82% 30.43 in 10.0 mi NNE 10.4 mph - N/A   Mostly Cloudy
5:56 PM 45.0 °F 39.7 °F 39.0 °F 80% 30.44 in 10.0 mi NNE 10.4 mph - N/A   Mostly Cloudy
6:56 PM 45.0 °F 37.9 °F 36.0 °F 71% 30.47 in 10.0 mi NNE 16.1 mph 21.9 mph N/A   Mostly Cloudy
7:56 PM 44.1 °F 37.4 °F 36.0 °F 73% 30.47 in 10.0 mi NNE 13.8 mph - N/A   Mostly Cloudy
8:56 PM 43.0 °F 36.4 °F 34.0 °F 71% 30.49 in 10.0 mi NNE 12.7 mph - N/A   Mostly Cloudy
9:56 PM 43.0 °F 36.8 °F 32.0 °F 65% 30.49 in 10.0 mi NE 11.5 mph 19.6 mph N/A   Overcast
10:56 PM 41.0 °F 34.3 °F 30.9 °F 67% 30.50 in 10.0 mi NNE 11.5 mph - N/A   Mostly Cloudy
11:56 PM 39.9 °F 32.9 °F 28.9 °F 65% 30.50 in 10.0 mi NE 11.5 mph - N/A   Mostly Cloudy